Location: Champignolles
(47.0543°N, 4.5663°E)
Time: 05:14:25
(UTC+00:00)

Cosmos 1943 - Pass Details

Date: 30 November 2020
Orbit: 832 x 851 km, 71.0° (Epoch: 18 January)

Event Time Altitude Azimuth Distance (km) Brightness Sun altitude
Rises 18:04:35 0° 197° (SSW) 3,378 6.7 -21.4°
Reaches altitude 10° 18:07:00 10° 195° (SSW) 2,451 5.9 -21.8°
Maximum altitude 18:12:36 70° 113° (ESE) 897 3.1 -22.8°
Enters shadow 18:14:13 47° 46° (NE) 1,117 3.4 -23.0°
